Watertown, NY

4:23 AM EST on November 20, 2019 (GMT -0500)
Watertown International

Weather History for KART - September, 2019

Change the Weather History Date:

Thursday, September 12, 2019

  Actual Average Record
Temperature  
Mean Temperature 56 °F 61 °F  
Max Temperature 68 °F 72 °F 85 °F (1951)
Min Temperature 43 °F 50 °F 33 °F (1976)
Degree Days  
Heating Degree Days 9 5  
Month to date heating degree days 59 48  
Since 1 July heating degree days 88 120  
Cooling Degree Days 0 1  
Month to date cooling degree days 8 22  
Year to date cooling degree days 329 346  
Growing Degree Days 8 (Base 50)    
Moisture  
Dew Point 49 °F    
Average Humidity 71    
Maximum Humidity 93    
Minimum Humidity 48    
Precipitation  
Precipitation T in 0.12 in 1.69 in (2015)
Month to date precipitation 2.21 1.31  
Year to date precipitation 30.30 23.11  
Sea Level Pressure  
Sea Level Pressure 30.21 in    
Wind  
Wind Speed 11 mph (NE)    
Max Wind Speed 23 mph    
Max Gust Speed 30 mph    
Visibility 10 miles    
Events      
T = Trace of Precipitation, MM = Missing Value Source: NWS Daily Summary

Daily Weather History Graph

Daily Weather History Graph

Search for Another Location

Airport or City:

Astronomy

Sep. 12, 2019 Rise Set
Actual Time 6:39 AM EDT 7:20 PM EDT
Civil Twilight 6:10 AM EDT 7:49 PM EDT
Nautical Twilight 5:35 AM EDT 8:23 PM EDT
Astronomical Twilight 4:59 AM EDT 8:59 PM EDT
Moon 7:08 PM EDT (9/12) 4:51 AM EDT (9/12)
Length of Visible Light 13h 39m
Length of Day
12h 40m
Waxing Gibbous, 98% of the Moon is Illuminated
Sep 12
Waxing Gibbous
Sep 14
Full
Sep 21
Last Quarter
Sep 28
New
Oct 5
First Quarter

Hourly Weather History & Observations

Time (EDT) Temp. Dew Point Humidity Pressure Visibility Wind Dir Wind Speed Gust Speed Precip Events Conditions
12:56 AM 60.1 °F 52.0 °F 75% 30.08 in 10.0 mi ENE 9.2 mph - N/A   Clear
1:56 AM 59.0 °F 52.0 °F 78% 30.08 in 10.0 mi NE 12.7 mph - N/A   Scattered Clouds
2:56 AM 57.9 °F 52.0 °F 81% 30.08 in 10.0 mi NE 11.5 mph - N/A   Mostly Cloudy
3:56 AM 57.9 °F 52.0 °F 81% 30.10 in 10.0 mi NE 9.2 mph - N/A   Overcast
4:56 AM 57.9 °F 52.0 °F 81% 30.11 in 10.0 mi NE 9.2 mph - N/A   Mostly Cloudy
5:56 AM 57.0 °F 51.1 °F 81% 30.13 in 10.0 mi NE 12.7 mph - N/A   Overcast
6:56 AM 57.0 °F 50.0 °F 77% 30.16 in 10.0 mi NE 10.4 mph - 0.00 in   Overcast
7:56 AM 55.9 °F 51.1 °F 84% 30.17 in 10.0 mi NE 9.2 mph - 0.00 in   Overcast
8:56 AM 55.9 °F 50.0 °F 80% 30.20 in 10.0 mi NE 12.7 mph - 0.00 in   Overcast
9:56 AM 57.9 °F 50.0 °F 75% 30.20 in 10.0 mi NE 17.3 mph - 0.00 in   Mostly Cloudy
11:03 AM 63.0 °F 52.0 °F 67% 30.21 in 10.0 mi NE 15.0 mph 20.7 mph N/A   Mostly Cloudy
11:47 AM 63.0 °F 51.1 °F 65% 30.21 in 10.0 mi NE 19.6 mph 26.5 mph N/A   Scattered Clouds
11:56 AM 64.0 °F 51.1 °F 63% 30.21 in 10.0 mi NE 19.6 mph 26.5 mph N/A   Partly Cloudy
12:23 PM 64.9 °F 52.0 °F 63% 30.22 in 10.0 mi NE 17.3 mph 26.5 mph N/A   Mostly Cloudy
12:41 PM 64.9 °F 51.1 °F 61% 30.22 in 10.0 mi NE 18.4 mph 23.0 mph N/A   Scattered Clouds
12:56 PM 64.9 °F 51.1 °F 61% 30.22 in 10.0 mi NE 19.6 mph 27.6 mph N/A   Scattered Clouds
1:56 PM 64.9 °F 48.9 °F 56% 30.22 in 10.0 mi NE 13.8 mph 23.0 mph N/A   Mostly Cloudy
2:56 PM 66.9 °F 50.0 °F 54% 30.22 in 10.0 mi NE 18.4 mph 27.6 mph N/A   Clear
3:56 PM 66.9 °F 48.0 °F 51% 30.24 in 10.0 mi NNE 19.6 mph - N/A   Clear
4:56 PM 66.0 °F 46.9 °F 50% 30.25 in 10.0 mi NE 15.0 mph - N/A   Clear
5:56 PM 64.9 °F 46.9 °F 52% 30.27 in 10.0 mi NE 15.0 mph - N/A   Clear
6:56 PM 61.0 °F 46.9 °F 60% 30.30 in 10.0 mi NNE 10.4 mph - N/A   Clear
7:56 PM 55.9 °F 46.0 °F 69% 30.32 in 10.0 mi NE 9.2 mph - N/A   Clear
8:56 PM 52.0 °F 46.0 °F 80% 30.33 in 10.0 mi East 5.8 mph - N/A   Clear
9:56 PM 51.1 °F 45.0 °F 80% 30.34 in 10.0 mi East 5.8 mph - N/A   Clear
10:56 PM 50.0 °F 44.1 °F 80% 30.34 in 10.0 mi East 4.6 mph - N/A   Clear
11:56 PM 46.0 °F 44.1 °F 93% 30.36 in 10.0 mi Calm Calm - N/A   Clear